Meteo Giornale » Osservazioni meteo Gran Bretagna » Londra-Heathrow AP

ore: 22:50 - Osservazioni Meteo Londra-Heathrow AP
Lat. 51° 29' N Lon. 0° 27' W Alt. 24 metri s.l.m.

sereno

18 °C

Sereno

Temp. 24 Ore

13 °C

23 °C

Sud-Ovest

13 Km/h

Dew point 12 °C

Umidità 67 %

Visibilità  10 Km

Il sole sorge alle ore 06:14

Il sole tramonta alle ore 19:48

Data e Ora Cielo e Fenomeni T °C DP °C Um. % Pres. hPa Vis. km Vento km/h
Oggi h: 22:50 sereno Sereno 18 12 67 1020 10 SO 13
Oggi h: 22:20 sereno Sereno 19 12 63 1020 10 O/SO 18.5
Oggi h: 21:50 sereno Sereno 19 12 63 1020 10 O/SO 18.5
Oggi h: 21:20 sereno Sereno 19 12 63 1020 10 O/SO 20.3
Oggi h: 20:50 sereno Sereno 19 12 63 1020 10 O/SO 22.2
Oggi h: 20:20 sereno Sereno 20 12 59 1020 10 SO 24
Oggi h: 19:50 sereno Sereno 20 11 56 1019 10 O/SO 20.3
Oggi h: 19:20 sereno Sereno 21 10 49 1019 10 O 18.5
Oggi h: 18:50 sereno Sereno 21 9 46 1019 10 O 20.3
Oggi h: 18:20 sereno Sereno 22 9 43 1019 10 O 20.3
Oggi h: 17:50 sereno Sereno 22 9 43 1019 10 O 22.2
Oggi h: 17:20 sereno Sereno 22 8 40 1019 10 O 24
Oggi h: 16:50 sereno Sereno 22 9 43 1019 10 O/SO 20.3
Oggi h: 16:20 sereno Sereno 22 9 43 1020 10 O 18.5
Oggi h: 15:50 sereno Sereno 23 9 40 1019 10 O 25.9
Oggi h: 15:20 sereno Sereno 23 9 40 1020 10 O/SO 27.8
Oggi h: 14:50 sereno Sereno 23 9 40 1020 10 O 24
Oggi h: 14:20 sereno Sereno 22 9 43 1020 10 SO 22.2
Oggi h: 13:50 poco_nuvoloso Poco Nuvoloso 21 9 46 1020 10 SO 16.7
Oggi h: 13:20 nuvoloso Nuvoloso 21 9 46 1020 10 O/SO 24
Oggi h: 12:50 molto_nuvoloso Molto Nuvoloso 21 9 46 1020 10 O 18.5
Oggi h: 12:20 molto_nuvoloso Molto Nuvoloso 21 9 46 1020 10 O 20.3
Oggi h: 11:50 sereno Sereno 20 8 45 1021 10 O 20.3
Oggi h: 11:20 sereno Sereno 20 8 45 1021 10 O/NO 14.8
Oggi h: 10:50 sereno Sereno 19 8 48 1021 10 O 20.3
Oggi h: 10:20 sereno Sereno 19 9 52 1021 10 O 20.3
Oggi h: 09:50 sereno Sereno 17 10 63 1021 10 O 11.1
Oggi h: 09:20 sereno Sereno 16 10 67 1021 10 O 14.8
Oggi h: 08:50 sereno Sereno 15 11 76 1021 10 O 11.1
Oggi h: 08:20 sereno Sereno 14 11 82 1021 10 O 11.1
Oggi h: 07:50 sereno Sereno 13 11 87 1021 10 O/SO 13
Oggi h: 07:20 sereno Sereno 13 11 87 1020 10 O 11.1
Oggi h: 06:50 sereno Sereno 13 11 87 1020 10 O 13
Oggi h: 06:20 sereno Sereno 13 10 81 1020 10 O/SO 11.1
Oggi h: 05:50 sereno Sereno 13 10 81 1020 10 O 13
Oggi h: 05:20 sereno Sereno 13 10 81 1020 10 O 11.1
Oggi h: 04:50 sereno Sereno 13 10 81 1020 10 O 11.1
Oggi h: 04:20 sereno Sereno 13 10 81 1020 10 O/SO 9.3
Oggi h: 03:50 sereno Sereno 14 10 76 1019 10 O 11.1
Oggi h: 03:20 sereno Sereno 14 10 76 1020 10 O 11.1
Oggi h: 02:50 sereno Sereno 14 10 76 1019 10 O 13
Oggi h: 02:20 sereno Sereno 14 10 76 1019 10 O 14.8
Oggi h: 01:50 sereno Sereno 15 10 72 1019 10 O 16.7
Oggi h: 01:20 sereno Sereno 15 10 72 1019 10 O 14.8
Oggi h: 00:50 sereno Sereno 15 10 72 1019 10 O/NO 13
Oggi h: 00:20 sereno Sereno 16 10 67 1019 10 O/NO 11.1
Ieri h: 23:50 sereno Sereno 17 10 63 1019 10 O 14.8